Weather History for KTAD - January, 2012

Change the Weather History Date:

Friday, January 20, 2012

  Actual Average Record
Temperature  
Mean Temperature 46 °F 32 °F  
Max Temperature 63 °F 47 °F 73 °F (1971)
Min Temperature 28 °F 18 °F -9 °F (1960)
Degree Days  
Heating Degree Days 19 33  
Month to date heating degree days 391 660  
Since 1 July heating degree days 2621 2928  
Cooling Degree Days 0 0  
Month to date cooling degree days 0 0  
Year to date cooling degree days 0 0  
Moisture  
Dew Point 22 °F    
Average Humidity 51    
Maximum Humidity 85    
Minimum Humidity 17    
Precipitation  
Precipitation 0.00 in 0.01 in 0.37 in (1959)
Month to date precipitation T 0.25  
Year to date precipitation T 0.25  
Sea Level Pressure  
Sea Level Pressure 29.78 in    
Wind  
Wind Speed 10 mph (West)    
Max Wind Speed 30 mph    
Max Gust Speed 36 mph    
T = Trace of Precipitation, MM = Missing Value Source: NWS Daily Summary

Daily Weather History Graph

Daily Weather History Graph

Search for Another Location

Airport or City:

Trip Planner

Search our weather history database for the weather conditions in past years. The results will help you decide how hot, cold, wet, or windy it might be!

Date:

Astronomy

Jan. 20, 2012 Rise Set
Actual Time 7:08 AM MST 5:08 PM MST
Civil Twilight 6:40 AM MST 5:36 PM MST
Nautical Twilight 6:08 AM MST 6:08 PM MST
Astronomical Twilight 5:37 AM MST 6:39 PM MST
Moon 4:46 AM MST (1/20) 2:44 PM MST (1/20)
Length of Visible Light 10h 56m
Length of Day
9h 59m
Waning Crescent, 8% of the Moon is Illuminated
Jan 20
Waning Crescent
Jan 23
New
Jan 30
First Quarter
Feb 7
Full
Feb 14
Last Quarter

Hourly Weather History & Observations

Time (MST) Temp. Windchill Dew Point Humidity Pressure Visibility Wind Dir Wind Speed Gust Speed Precip Events Conditions
12:54 AM 39.9 °F 33.9 °F 24.1 °F 53% 29.69 in - WNW 9.2 mph - N/A   Clear
1:54 AM 39.9 °F 34.5 °F 23.0 °F 51% 29.67 in - WNW 8.1 mph - N/A   Clear
2:54 AM 46.9 °F - 19.0 °F 33% 29.49 in - WNW 9.2 mph - N/A   Clear
4:54 AM 46.9 °F - 19.9 °F 34% 29.56 in - NW 13.8 mph 20.7 mph N/A   Clear
5:54 AM 36.0 °F 28.5 °F 21.0 °F 55% 29.65 in - West 10.4 mph - N/A   Clear
6:54 AM 37.9 °F 33.5 °F 19.9 °F 48% 29.65 in - WSW 5.8 mph - N/A   Clear
7:54 AM 35.1 °F 27.4 °F 21.9 °F 59% 29.69 in - West 10.4 mph - N/A   Clear
8:54 AM 39.9 °F 33.9 °F 24.1 °F 53% 29.73 in - SW 9.2 mph - N/A   Clear
9:54 AM 52.0 °F - 21.9 °F 31% 29.71 in - WSW 6.9 mph - N/A   Mostly Cloudy
10:54 AM 57.0 °F - 19.9 °F 24% 29.68 in - Variable 3.5 mph - N/A   Clear
11:54 AM 60.1 °F - 18.0 °F 20% 29.80 in - NW 23.0 mph 31.1 mph N/A   Clear
12:54 PM 63.0 °F - 17.1 °F 17% 29.66 in - North - - N/A   Unknown
1:54 PM 62.1 °F - - N/A% 29.68 in - NW 25.3 mph 33.4 mph N/A   Unknown
2:54 PM - - - N/A% 29.84 in - North - - N/A   Unknown
3:54 PM 59.0 °F - 18.0 °F 20% 29.76 in - NW 15.0 mph 21.9 mph N/A   Unknown
4:54 PM 53.1 °F - 17.1 °F 24% 29.80 in - NW 11.5 mph - N/A   Unknown
5:54 PM 50.0 °F - 16.0 °F 26% 29.89 in - North 16.1 mph - N/A   Clear
6:54 PM 39.9 °F 35.1 °F 28.0 °F 63% 29.96 in - SSW 6.9 mph - N/A   Clear
7:54 PM 39.0 °F 31.4 °F 27.0 °F 62% 30.01 in - East 12.7 mph 17.3 mph N/A   Clear
8:54 PM 36.0 °F 31.1 °F 28.9 °F 76% 30.01 in - East 5.8 mph - N/A   Scattered Clouds
9:54 PM 28.0 °F 20.8 °F 25.0 °F 88% 30.01 in - WSW 6.9 mph - N/A   Clear
10:54 PM 30.9 °F 25.2 °F 25.0 °F 79% 29.97 in - West 5.8 mph - N/A   Clear
11:54 PM 36.0 °F 27.1 °F 25.0 °F 64% 29.92 in - WSW 13.8 mph - N/A   Clear